Total_Precipitation_Accumulation
1.17 1.14 1.13 1.09 1.06 1.04 1.05 1.02 0.92 0.81 0.69 0.62 0.57 0.53 0.50 0.50 0.54 0.61 0.65 0.67 0.69 0.74 0.80 0.85 0.90 0.91 0.99 1.04 1.06 1.10 1.21 1.30 1.34 1.23 1.09 1.02 0.96 0.89 0.86 0.87 0.85 0.79 0.70
0.95 0.88 0.88 0.82 0.76 0.76 0.78 0.72 0.66 0.62 0.55 0.49 0.44 0.42 0.42 0.43 0.45 0.47 0.50 0.54 0.61 0.65 0.69 0.73 0.78 0.79 0.84 0.87 0.90 0.92 1.00 1.10 1.18 1.20 1.13 1.06 0.99 0.92 0.87 0.89 0.74 0.63 0.62
0.79 0.76 0.75 0.73 0.71 0.69 0.67 0.60 0.55 0.54 0.53 0.47 0.41 0.40 0.37 0.35 0.36 0.36 0.38 0.41 0.49 0.56 0.59 0.65 0.70 0.71 0.70 0.68 0.73 0.79 0.86 0.95 1.09 1.12 1.05 0.96 0.89 0.82 0.85 0.79 0.72 0.77 0.58
0.68 0.67 0.65 0.64 0.63 0.61 0.61 0.58 0.54 0.47 0.42 0.41 0.39 0.38 0.35 0.32 0.31 0.31 0.32 0.34 0.39 0.44 0.45 0.50 0.58 0.62 0.62 0.64 0.64 0.75 0.83 0.95 1.04 1.05 0.98 0.89 0.84 0.79 0.88 0.89 0.83 0.79 0.65
0.64 0.64 0.63 0.59 0.54 0.50 0.50 0.49 0.47 0.44 0.39 0.36 0.33 0.32 0.27 0.25 0.23 0.24 0.28 0.33 0.39 0.39 0.40 0.40 0.41 0.47 0.55 0.58 0.59 0.66 0.77 0.92 0.94 0.93 0.92 0.88 0.82 0.85 0.87 0.84 0.87 0.82 0.70
0.71 0.71 0.69 0.64 0.56 0.51 0.47 0.45 0.44 0.39 0.35 0.31 0.29 0.30 0.28 0.22 0.22 0.22 0.23 0.30 0.38 0.41 0.39 0.36 0.34 0.32 0.38 0.46 0.48 0.55 0.68 0.78 0.84 0.88 0.87 0.87 0.84 0.87 0.91 0.89 0.91 0.92 0.87
0.69 0.67 0.66 0.60 0.54 0.52 0.45 0.42 0.43 0.44 0.38 0.35 0.35 0.36 0.37 0.30 0.21 0.18 0.19 0.27 0.39 0.39 0.38 0.40 0.35 0.33 0.39 0.47 0.48 0.45 0.50 0.52 0.61 0.78 0.89 0.93 0.96 1.03 1.11 1.07 1.03 1.02 0.98
0.62 0.59 0.53 0.48 0.49 0.49 0.44 0.44 0.45 0.46 0.44 0.42 0.42 0.43 0.44 0.33 0.22 0.15 0.17 0.27 0.36 0.31 0.32 0.37 0.44 0.46 0.40 0.41 0.46 0.50 0.55 0.55 0.56 0.61 0.79 0.86 0.85 0.94 1.05 1.08 1.08 1.03 0.97
0.61 0.56 0.48 0.42 0.45 0.48 0.47 0.47 0.50 0.48 0.48 0.48 0.48 0.50 0.50 0.38 0.25 0.19 0.21 0.30 0.37 0.34 0.32 0.31 0.31 0.35 0.33 0.38 0.48 0.62 0.65 0.69 0.55 0.58 0.68 0.73 0.76 0.82 0.88 0.96 1.09 1.17 1.13
0.59 0.53 0.46 0.43 0.44 0.48 0.52 0.52 0.49 0.48 0.46 0.42 0.46 0.54 0.50 0.41 0.28 0.23 0.25 0.29 0.35 0.40 0.43 0.42 0.32 0.29 0.31 0.35 0.49 0.65 0.73 0.72 0.75 0.90 1.01 1.00 0.95 0.93 0.89 0.97 1.15 1.21 1.22
0.48 0.47 0.47 0.46 0.45 0.44 0.48 0.50 0.48 0.43 0.46 0.45 0.46 0.47 0.45 0.33 0.26 0.23 0.26 0.30 0.32 0.37 0.43 0.48 0.42 0.34 0.31 0.33 0.40 0.55 0.66 0.66 0.84 1.18 1.23 1.12 1.00 0.98 0.93 0.93 1.05 1.15 1.22
0.52 0.52 0.51 0.47 0.37 0.37 0.46 0.49 0.45 0.44 0.47 0.48 0.48 0.47 0.41 0.32 0.24 0.19 0.21 0.24 0.26 0.34 0.46 0.45 0.43 0.38 0.34 0.36 0.40 0.51 0.61 0.75 0.99 1.27 1.24 1.08 0.93 0.88 0.86 0.80 0.87 0.95 1.04
0.56 0.55 0.51 0.42 0.36 0.37 0.43 0.44 0.42 0.41 0.39 0.36 0.35 0.39 0.35 0.29 0.25 0.17 0.16 0.17 0.20 0.28 0.37 0.38 0.38 0.39 0.42 0.53 0.56 0.61 0.72 0.93 1.10 1.18 1.10 0.94 0.82 0.78 0.75 0.74 0.73 0.81 0.85
0.62 0.55 0.46 0.40 0.34 0.31 0.32 0.30 0.30 0.30 0.30 0.28 0.28 0.30 0.27 0.23 0.18 0.14 0.15 0.18 0.20 0.24 0.31 0.42 0.52 0.58 0.65 0.78 0.86 0.92 0.93 0.96 0.96 0.98 0.92 0.81 0.72 0.70 0.70 0.64 0.67 0.72 0.81
0.60 0.49 0.43 0.35 0.29 0.27 0.23 0.17 0.16 0.16 0.15 0.17 0.16 0.15 0.17 0.16 0.10 0.11 0.13 0.17 0.20 0.23 0.29 0.44 0.65 0.77 0.85 0.89 0.93 0.97 0.94 0.87 0.84 0.80 0.75 0.72 0.71 0.70 0.66 0.56 0.58 0.62 0.71
0.44 0.38 0.31 0.26 0.24 0.19 0.18 0.16 0.11 0.09 0.09 0.10 0.10 0.09 0.08 0.09 0.08 0.08 0.10 0.13 0.17 0.21 0.29 0.49 0.66 0.74 0.80 0.83 0.85 0.84 0.79 0.75 0.70 0.68 0.66 0.61 0.58 0.59 0.61 0.57 0.56 0.60 0.66
0.32 0.28 0.22 0.18 0.17 0.15 0.18 0.25 0.27 0.17 0.08 0.08 0.07 0.08 0.07 0.07 0.07 0.07 0.08 0.10 0.14 0.22 0.33 0.52 0.64 0.68 0.74 0.78 0.73 0.70 0.69 0.64 0.57 0.54 0.54 0.52 0.46 0.47 0.54 0.57 0.57 0.60 0.61
0.24 0.19 0.19 0.19 0.15 0.14 0.15 0.18 0.23 0.29 0.26 0.18 0.09 0.06 0.06 0.07 0.08 0.08 0.10 0.12 0.21 0.28 0.42 0.54 0.60 0.62 0.66 0.67 0.63 0.61 0.60 0.54 0.49 0.48 0.48 0.48 0.45 0.43 0.47 0.52 0.53 0.53 0.55
0.22 0.20 0.20 0.19 0.16 0.13 0.13 0.12 0.14 0.19 0.23 0.23 0.18 0.11 0.09 0.12 0.14 0.16 0.17 0.20 0.27 0.33 0.39 0.43 0.50 0.55 0.58 0.57 0.55 0.51 0.50 0.49 0.47 0.46 0.45 0.44 0.44 0.43 0.42 0.42 0.42 0.38 0.40
0.21 0.18 0.19 0.19 0.16 0.13 0.11 0.10 0.12 0.16 0.18 0.19 0.18 0.14 0.15 0.22 0.26 0.25 0.23 0.22 0.24 0.28 0.33 0.39 0.45 0.46 0.45 0.44 0.42 0.39 0.38 0.40 0.40 0.39 0.39 0.41 0.41 0.39 0.39 0.38 0.37 0.36 0.36
0.19 0.17 0.15 0.13 0.12 0.09 0.08 0.08 0.10 0.13 0.14 0.15 0.13 0.13 0.20 0.25 0.32 0.31 0.30 0.28 0.28 0.29 0.30 0.34 0.36 0.36 0.33 0.32 0.34 0.33 0.31 0.32 0.33 0.36 0.36 0.35 0.33 0.30 0.27 0.24 0.22 0.23 0.25
0.17 0.15 0.12 0.10 0.09 0.07 0.08 0.09 0.09 0.10 0.10 0.12 0.12 0.12 0.18 0.20 0.25 0.26 0.28 0.28 0.28 0.29 0.30 0.33 0.32 0.31 0.30 0.31 0.34 0.33 0.30 0.27 0.27 0.31 0.32 0.30 0.27 0.23 0.20 0.19 0.16 0.16 0.18
0.14 0.12 0.10 0.09 0.09 0.08 0.09 0.10 0.09 0.09 0.10 0.11 0.10 0.11 0.13 0.16 0.18 0.22 0.26 0.25 0.23 0.24 0.25 0.26 0.29 0.30 0.29 0.28 0.29 0.26 0.24 0.24 0.25 0.26 0.32 0.30 0.25 0.20 0.19 0.18 0.16 0.15 0.15
0.11 0.09 0.09 0.08 0.08 0.09 0.08 0.07 0.07 0.08 0.09 0.09 0.08 0.09 0.11 0.13 0.15 0.19 0.22 0.23 0.24 0.25 0.24 0.24 0.26 0.27 0.26 0.26 0.25 0.21 0.17 0.17 0.18 0.21 0.26 0.25 0.19 0.17 0.18 0.18 0.16 0.15 0.15
0.08 0.08 0.08 0.07 0.07 0.09 0.08 0.07 0.06 0.06 0.07 0.07 0.07 0.09 0.10 0.09 0.09 0.11 0.16 0.20 0.22 0.23 0.23 0.21 0.19 0.17 0.17 0.15 0.13 0.13 0.15 0.15 0.13 0.14 0.20 0.22 0.18 0.16 0.17 0.17 0.16 0.15 0.15
0.07 0.09 0.09 0.08 0.09 0.08 0.07 0.07 0.07 0.06 0.06 0.07 0.07 0.07 0.06 0.06 0.06 0.08 0.11 0.14 0.17 0.18 0.20 0.20 0.18 0.14 0.11 0.08 0.09 0.12 0.13 0.11 0.09 0.09 0.13 0.19 0.18 0.16 0.16 0.17 0.16 0.17 0.17